Location: Seasalter
(51.3333°N, 1.0167°E)
Time: 19:16:59
(UTC+00:00)

Cosmos 2195 Rocket - Pass Details

Date: 26 September 2023
Orbit: 948 x 993 km, 82.9° (Epoch: 08 December)

Event Time Altitude Azimuth Distance (km) Brightness Sun altitude
Exits shadow 02:26:56 82° 332° (NNW) 971 4.3 -29.6°
Drops below altitude 10° 02:32:53 10° 9° (N) 2,706 7.4 -28.9°
Sets 02:35:25 0° 10° (N) 3,662 8.2 -28.6°
